Weather History for Muscatine, IA

Change the Weather History Date:

Saturday, October 6, 2012

  Actual Average Record
Temperature  
Mean Temperature 39 °F -  
Max Temperature 48 °F 66 °F 140 °F (1997)
Min Temperature 30 °F 44 °F 24 °F (1988)
Degree Days  
Heating Degree Days 26    
Moisture  
Dew Point 23 °F    
Average Humidity 51    
Maximum Humidity 69    
Minimum Humidity 34    
Precipitation  
Precipitation 0.00 in - - ()
Sea Level Pressure  
Sea Level Pressure 30.22 in    
Wind  
Wind Speed 7 mph (WNW)    
Max Wind Speed 23 mph    
Max Gust Speed 32 mph    
Visibility 10 miles    
Events      
Averages and records for this station are not official NWS values.
T = Trace of Precipitation, MM = Missing Value Source: NWS Daily Summary

Daily Weather History Graph

Daily Weather History Graph

Search for Another Location

Airport:

Trip Planner

Search our weather history database for the weather conditions in past years. The results will help you decide how hot, cold, wet, or windy it might be!

Date:

Astronomy

Oct. 06, 2012 Rise Set
Actual Time 7:07 AM CDT 6:37 PM CDT
Civil Twilight 6:39 AM CDT 7:04 PM CDT
Nautical Twilight 6:07 AM CDT 7:36 PM CDT
Astronomical Twilight 5:35 AM CDT 8:08 PM CDT
Moon 10:50 PM CDT (10/6) 1:04 PM CDT (10/6)
Length of Visible Light 12h 25m
Length of Day
11h 30m
Waning Gibbous, 65% of the Moon is Illuminated
Oct 6
Waning Gibbous
Oct 8
Last Quarter
Oct 15
New
Oct 21
First Quarter
Oct 29
Full

Hourly Weather History & Observations

Time (CDT) Temp. Windchill Dew Point Humidity Pressure Visibility Wind Dir Wind Speed Gust Speed Precip Events Conditions
12:15 AM 35.6 °F 31.7 °F 21.2 °F 56% 30.18 in 10.0 mi West 4.6 mph - N/A   Clear
12:35 AM 33.8 °F 29.6 °F 21.2 °F 60% 30.18 in 10.0 mi WNW 4.6 mph - N/A   Clear
12:55 AM 35.6 °F - 21.2 °F 56% 30.18 in 10.0 mi Calm Calm - N/A   Clear
1:15 AM 33.8 °F 29.6 °F 19.4 °F 56% 30.19 in 10.0 mi WNW 4.6 mph - N/A   Clear
1:55 AM 33.8 °F 28.6 °F 21.2 °F 60% 30.19 in 10.0 mi West 5.8 mph - N/A   Clear
2:15 AM 33.8 °F 28.6 °F 19.4 °F 56% 30.19 in 10.0 mi WNW 5.8 mph - N/A   Clear
2:35 AM 33.8 °F 28.6 °F 21.2 °F 60% 30.18 in 10.0 mi West 5.8 mph - N/A   Clear
2:55 AM 33.8 °F 29.6 °F 21.2 °F 60% 30.19 in 10.0 mi West 4.6 mph - N/A   Clear
3:15 AM 33.8 °F 29.6 °F 21.2 °F 60% 30.19 in 10.0 mi West 4.6 mph - N/A   Clear
3:35 AM 32.0 °F - 21.2 °F 64% 30.19 in 10.0 mi Calm Calm - N/A   Clear
3:55 AM 30.2 °F 24.3 °F 21.2 °F 69% 30.20 in 10.0 mi West 5.8 mph - N/A   Clear
4:15 AM 30.2 °F 26.7 °F 21.2 °F 69% 30.21 in 10.0 mi WSW 3.5 mph - N/A   Clear
4:35 AM 30.2 °F 23.4 °F 21.2 °F 69% 30.21 in 10.0 mi West 6.9 mph - N/A   Clear
4:55 AM 30.2 °F 24.3 °F 21.2 °F 69% 30.20 in 10.0 mi West 5.8 mph - N/A   Clear
5:15 AM 30.2 °F 26.7 °F 21.2 °F 69% 30.20 in 10.0 mi West 3.5 mph - N/A   Clear
5:35 AM 30.2 °F 24.3 °F 21.2 °F 69% 30.20 in 10.0 mi West 5.8 mph - N/A   Clear
5:55 AM 30.2 °F 24.3 °F 21.2 °F 69% 30.21 in 10.0 mi West 5.8 mph - N/A   Clear
6:15 AM 30.2 °F 24.3 °F 21.2 °F 69% 30.21 in 10.0 mi West 5.8 mph - N/A   Clear
6:35 AM 30.2 °F 26.7 °F 21.2 °F 69% 30.21 in 10.0 mi West 3.5 mph - N/A   Clear
6:55 AM 30.2 °F 26.7 °F 21.2 °F 69% 30.22 in 10.0 mi WSW 3.5 mph - N/A   Clear
7:15 AM 30.2 °F 23.4 °F 21.2 °F 69% 30.22 in 10.0 mi West 6.9 mph - N/A   Clear
7:35 AM 30.2 °F 24.3 °F 21.2 °F 69% 30.23 in 10.0 mi West 5.8 mph - N/A   Clear
7:55 AM 32.0 °F 24.8 °F 23.0 °F 69% 30.23 in 10.0 mi West 8.1 mph - N/A   Clear
8:15 AM 33.8 °F 25.3 °F 23.0 °F 65% 30.23 in 10.0 mi WNW 11.5 mph - N/A   Clear
8:35 AM 35.6 °F 28.6 °F 23.0 °F 60% 30.24 in 10.0 mi WNW 9.2 mph - N/A   Clear
8:55 AM 35.6 °F 27.5 °F 23.0 °F 60% 30.24 in 10.0 mi West 11.5 mph - N/A   Clear
9:15 AM 37.4 °F 29.8 °F 24.8 °F 60% 30.24 in 10.0 mi WNW 11.5 mph - N/A   Clear
9:35 AM 39.2 °F 31.6 °F 24.8 °F 56% 30.25 in 10.0 mi NW 12.7 mph 17.3 mph N/A   Clear
9:55 AM 39.2 °F 30.5 °F 24.8 °F 56% 30.25 in 10.0 mi NW 16.1 mph 32.2 mph N/A   Clear
10:15 AM 39.2 °F 32.0 °F 24.8 °F 56% 30.25 in 10.0 mi NW 11.5 mph - N/A   Clear
10:35 AM 41.0 °F 33.9 °F 24.8 °F 53% 30.24 in 10.0 mi NW 12.7 mph 18.4 mph N/A   Clear
10:55 AM 42.8 °F 36.6 °F 24.8 °F 49% 30.24 in 10.0 mi NW 11.5 mph 18.4 mph N/A   Clear
11:15 AM 42.8 °F 36.2 °F 24.8 °F 49% 30.24 in 10.0 mi NNW 12.7 mph 17.3 mph N/A   Clear
11:35 AM 44.6 °F 40.7 °F 24.8 °F 46% 30.25 in 10.0 mi NW 6.9 mph 20.7 mph N/A   Scattered Clouds
11:55 AM 44.6 °F 38.8 °F 24.8 °F 46% 30.25 in 10.0 mi NW 11.5 mph 18.4 mph N/A   Mostly Cloudy
12:15 PM 44.6 °F 38.8 °F 24.8 °F 46% 30.25 in 10.0 mi NW 11.5 mph 16.1 mph N/A   Mostly Cloudy
12:35 PM 46.4 °F 41.5 °F 24.8 °F 43% 30.24 in 10.0 mi NW 10.4 mph - N/A   Overcast
12:55 PM 46.4 °F 38.3 °F 23.0 °F 40% 30.23 in 10.0 mi NNW 23.0 mph 29.9 mph N/A   Overcast
1:15 PM 46.4 °F 40.7 °F 23.0 °F 40% 30.23 in 10.0 mi WNW 12.7 mph 24.2 mph N/A   Scattered Clouds
1:35 PM 48.2 °F - 23.0 °F 37% 30.23 in 10.0 mi NW 8.1 mph 19.6 mph N/A   Scattered Clouds
1:55 PM 48.2 °F - 21.2 °F 34% 30.22 in 10.0 mi NNW 11.5 mph - N/A   Mostly Cloudy
2:15 PM 48.2 °F - 21.2 °F 34% 30.22 in 10.0 mi WNW 10.4 mph - N/A   Overcast
2:35 PM 48.2 °F - 21.2 °F 34% 30.22 in 10.0 mi NW 11.5 mph - N/A   Overcast
2:55 PM 48.2 °F - 21.2 °F 34% 30.23 in 10.0 mi NW 12.7 mph - N/A   Overcast
3:15 PM 46.4 °F 40.7 °F 21.2 °F 37% 30.23 in 10.0 mi NNW 12.7 mph - N/A   Overcast
3:35 PM 46.4 °F 40.7 °F 21.2 °F 37% 30.22 in 10.0 mi WNW 12.7 mph 18.4 mph N/A   Overcast
3:55 PM 46.4 °F 40.7 °F 21.2 °F 37% 30.22 in 10.0 mi NW 12.7 mph 17.3 mph N/A   Overcast
4:15 PM 46.4 °F 40.7 °F 21.2 °F 37% 30.22 in 10.0 mi NW 12.7 mph 16.1 mph N/A   Overcast
4:35 PM 46.4 °F 42.4 °F 21.2 °F 37% 30.22 in 10.0 mi NW 8.1 mph - N/A   Overcast
4:55 PM 46.4 °F 41.1 °F 21.2 °F 37% 30.22 in 10.0 mi NW 11.5 mph 17.3 mph N/A   Overcast
5:15 PM 46.4 °F 41.9 °F 21.2 °F 37% 30.22 in 10.0 mi NNW 9.2 mph - N/A   Overcast
5:35 PM 46.4 °F 41.9 °F 21.2 °F 37% 30.23 in 10.0 mi NW 9.2 mph - N/A   Overcast
5:55 PM 44.6 °F 39.7 °F 21.2 °F 39% 30.23 in 10.0 mi WNW 9.2 mph - N/A   Overcast
6:15 PM 44.6 °F 40.2 °F 21.2 °F 39% 30.23 in 10.0 mi NW 8.1 mph - N/A   Overcast
6:35 PM 44.6 °F 39.2 °F 21.2 °F 39% 30.23 in 10.0 mi NW 10.4 mph - N/A   Overcast
6:55 PM 44.6 °F 40.2 °F 21.2 °F 39% 30.23 in 10.0 mi WNW 8.1 mph - N/A   Overcast
7:15 PM 44.6 °F 42.2 °F 21.2 °F 39% 30.23 in 10.0 mi WNW 4.6 mph - N/A   Overcast
7:35 PM 44.6 °F 42.2 °F 23.0 °F 43% 30.23 in 10.0 mi WNW 4.6 mph - N/A   Overcast
7:55 PM 44.6 °F 43.1 °F 24.8 °F 46% 30.23 in 10.0 mi WNW 3.5 mph - N/A   Overcast
8:15 PM 44.6 °F 43.1 °F 24.8 °F 46% 30.23 in 10.0 mi WNW 3.5 mph - N/A   Overcast
8:35 PM 42.8 °F 41.1 °F 24.8 °F 49% 30.24 in 10.0 mi WNW 3.5 mph - N/A   Overcast
8:55 PM 42.8 °F 41.1 °F 24.8 °F 49% 30.24 in 10.0 mi WNW 3.5 mph - N/A   Overcast
9:15 PM 42.8 °F 40.1 °F 24.8 °F 49% 30.24 in 10.0 mi NW 4.6 mph - N/A   Overcast
9:35 PM 42.8 °F 39.3 °F 24.8 °F 49% 30.24 in 10.0 mi NW 5.8 mph - N/A   Overcast
9:55 PM 42.8 °F 39.3 °F 24.8 °F 49% 30.25 in 10.0 mi NW 5.8 mph - N/A   Overcast
10:15 PM 42.8 °F 38.0 °F 24.8 °F 49% 30.24 in 10.0 mi NNW 8.1 mph - N/A   Overcast
10:35 PM 42.8 °F 39.3 °F 24.8 °F 49% 30.25 in 10.0 mi NNW 5.8 mph - N/A   Overcast
10:55 PM 42.8 °F 39.3 °F 24.8 °F 49% 30.25 in 10.0 mi NNW 5.8 mph - N/A   Overcast
11:15 PM 42.8 °F 40.1 °F 23.0 °F 46% 30.25 in 10.0 mi NW 4.6 mph - N/A   Overcast
11:35 PM 42.8 °F 41.1 °F 24.8 °F 49% 30.25 in 10.0 mi WNW 3.5 mph - N/A   Overcast
11:55 PM 42.8 °F - 26.6 °F 53% 30.24 in 10.0 mi Calm Calm - N/A   Overcast